Time,TemperatureF,DewpointF,PressureIn,WindDirection,WindDirectionDegrees,WindSpeedMPH,WindSpeedGustMPH,Humidity,HourlyPrecipIn,Conditions,Clouds,dailyrainin,SoftwareType,DateUTC
2013-04-30 00:02:00,49.0,34.0,29.44,North,-999,-999.0,-999.0,57,0.00,,,0.00,,2013-04-30 04:02:00,
2013-04-30 00:12:00,49.0,34.0,29.44,North,-999,-999.0,-999.0,57,0.00,,,0.00,,2013-04-30 04:12:00,
2013-04-30 00:22:00,49.0,35.0,29.44,North,-999,-999.0,-999.0,58,0.00,,,0.00,,2013-04-30 04:22:00,
2013-04-30 00:32:00,49.0,35.0,29.44,North,-999,-999.0,-999.0,58,0.00,,,0.00,,2013-04-30 04:32:00,
2013-04-30 00:42:00,49.0,35.0,29.44,North,-999,-999.0,-999.0,58,0.00,,,0.00,,2013-04-30 04:42:00,
2013-04-30 00:52:00,49.0,35.0,29.44,North,-999,-999.0,-999.0,58,0.00,,,0.00,,2013-04-30 04:52:00,
2013-04-30 01:02:00,49.0,35.0,29.44,North,-999,-999.0,-999.0,58,0.00,,,0.00,,2013-04-30 05:02:00,
2013-04-30 01:12:00,49.0,35.0,29.44,North,-999,-999.0,-999.0,58,0.00,,,0.00,,2013-04-30 05:12:00,
2013-04-30 01:22:00,49.0,35.0,29.44,North,-999,-999.0,-999.0,58,0.00,,,0.00,,2013-04-30 05:22:00,
2013-04-30 01:31:00,49.0,35.0,29.44,North,-999,-999.0,-999.0,59,0.00,,,0.00,,2013-04-30 05:31:00,
2013-04-30 01:42:00,49.0,35.0,29.44,North,-999,-999.0,-999.0,59,0.00,,,0.00,,2013-04-30 05:42:00,
2013-04-30 01:51:00,49.0,35.0,29.44,North,-999,-999.0,-999.0,59,0.00,,,0.00,,2013-04-30 05:51:00,
2013-04-30 02:02:00,49.0,36.0,29.44,North,-999,-999.0,-999.0,60,0.00,,,0.00,,2013-04-30 06:02:00,
2013-04-30 02:12:00,49.0,36.0,29.44,North,-999,-999.0,-999.0,60,0.00,,,0.00,,2013-04-30 06:12:00,
2013-04-30 02:21:00,49.0,36.0,29.44,North,-999,-999.0,-999.0,60,0.00,,,0.00,,2013-04-30 06:21:00,
2013-04-30 02:32:00,48.0,34.0,29.44,North,-999,-999.0,-999.0,59,0.00,,,0.00,,2013-04-30 06:32:00,
2013-04-30 02:41:00,48.0,34.0,29.44,North,-999,-999.0,-999.0,59,0.00,,,0.00,,2013-04-30 06:41:00,
2013-04-30 02:52:00,48.0,34.0,29.44,North,-999,-999.0,-999.0,59,0.00,,,0.00,,2013-04-30 06:52:00,
2013-04-30 03:02:00,48.0,34.0,29.44,North,-999,-999.0,-999.0,58,0.00,,,0.00,,2013-04-30 07:02:00,
2013-04-30 03:11:00,48.0,34.0,29.44,North,-999,-999.0,-999.0,58,0.00,,,0.00,,2013-04-30 07:11:00,
2013-04-30 03:21:00,48.0,34.0,29.44,North,-999,-999.0,-999.0,58,0.00,,,0.00,,2013-04-30 07:21:00,
2013-04-30 03:32:00,48.0,34.0,29.44,North,-999,-999.0,-999.0,58,0.00,,,0.00,,2013-04-30 07:32:00,
2013-04-30 03:42:00,48.0,34.0,29.44,North,-999,-999.0,-999.0,58,0.00,,,0.00,,2013-04-30 07:42:00,
2013-04-30 03:52:00,47.0,33.0,29.44,North,-999,-999.0,-999.0,57,0.00,,,0.00,,2013-04-30 07:52:00,
2013-04-30 04:02:00,46.0,32.0,29.44,North,-999,-999.0,-999.0,57,0.00,,,0.00,,2013-04-30 08:02:00,
2013-04-30 04:11:00,46.0,32.0,29.44,North,-999,-999.0,-999.0,57,0.00,,,0.00,,2013-04-30 08:11:00,
2013-04-30 04:22:00,46.0,32.0,29.45,North,-999,-999.0,-999.0,57,0.00,,,0.00,,2013-04-30 08:22:00,
2013-04-30 04:32:00,44.0,30.0,29.45,North,-999,-999.0,-999.0,58,0.00,,,0.00,,2013-04-30 08:32:00,
2013-04-30 04:42:00,44.0,30.0,29.45,North,-999,-999.0,-999.0,58,0.00,,,0.00,,2013-04-30 08:42:00,
2013-04-30 04:52:00,44.0,30.0,29.45,North,-999,-999.0,-999.0,58,0.00,,,0.00,,2013-04-30 08:52:00,
2013-04-30 05:02:00,43.0,29.0,29.45,North,-999,-999.0,-999.0,58,0.00,,,0.00,,2013-04-30 09:02:00,
2013-04-30 05:11:00,43.0,29.0,29.45,North,-999,-999.0,-999.0,58,0.00,,,0.00,,2013-04-30 09:11:00,
2013-04-30 05:22:00,42.0,28.0,29.45,North,-999,-999.0,-999.0,58,0.00,,,0.00,,2013-04-30 09:22:00,
2013-04-30 05:33:00,42.0,28.0,29.46,North,-999,-999.0,-999.0,57,0.00,,,0.00,,2013-04-30 09:33:00,
2013-04-30 05:43:00,42.0,28.0,29.46,North,-999,-999.0,-999.0,57,0.00,,,0.00,,2013-04-30 09:43:00,
2013-04-30 05:52:00,41.0,27.0,29.47,North,-999,-999.0,-999.0,58,0.00,,,0.00,,2013-04-30 09:52:00,
2013-04-30 06:03:00,41.0,27.0,29.47,North,-999,-999.0,-999.0,58,0.00,,,0.00,,2013-04-30 10:03:00,
2013-04-30 06:12:00,41.0,27.0,29.47,North,-999,-999.0,-999.0,58,0.00,,,0.00,,2013-04-30 10:12:00,
2013-04-30 06:22:00,41.0,28.0,29.47,North,-999,-999.0,-999.0,60,0.00,,,0.00,,2013-04-30 10:22:00,
2013-04-30 06:32:00,41.0,29.0,29.48,North,-999,-999.0,-999.0,61,0.00,,,0.00,,2013-04-30 10:32:00,
2013-04-30 06:41:00,41.0,29.0,29.48,North,-999,-999.0,-999.0,61,0.00,,,0.00,,2013-04-30 10:41:00,
2013-04-30 06:52:00,41.0,29.0,29.48,North,-999,-999.0,-999.0,62,0.00,,,0.00,,2013-04-30 10:52:00,
2013-04-30 07:02:00,41.0,29.0,29.48,North,-999,-999.0,-999.0,62,0.00,,,0.00,,2013-04-30 11:02:00,
2013-04-30 07:11:00,41.0,29.0,29.48,North,-999,-999.0,-999.0,62,0.00,,,0.00,,2013-04-30 11:11:00,
2013-04-30 07:21:00,41.0,29.0,29.49,North,-999,-999.0,-999.0,62,0.00,,,0.00,,2013-04-30 11:21:00,
2013-04-30 07:32:00,43.0,31.0,29.49,North,-999,-999.0,-999.0,62,0.00,,,0.00,,2013-04-30 11:32:00,
2013-04-30 07:42:00,43.0,31.0,29.49,North,-999,-999.0,-999.0,62,0.00,,,0.00,,2013-04-30 11:42:00,
2013-04-30 07:51:00,44.0,32.0,29.50,North,-999,-999.0,-999.0,62,0.00,,,0.00,,2013-04-30 11:51:00,
2013-04-30 08:01:00,44.0,32.0,29.50,North,-999,-999.0,-999.0,62,0.00,,,0.00,,2013-04-30 12:01:00,
2013-04-30 08:11:00,44.0,32.0,29.50,North,-999,-999.0,-999.0,62,0.00,,,0.00,,2013-04-30 12:11:00,
2013-04-30 08:22:00,48.0,34.0,29.50,North,-999,-999.0,-999.0,59,0.00,,,0.00,,2013-04-30 12:22:00,
2013-04-30 08:31:00,50.0,34.0,29.51,North,-999,-999.0,-999.0,54,0.00,,,0.00,,2013-04-30 12:31:00,
2013-04-30 08:42:00,50.0,34.0,29.51,North,-999,-999.0,-999.0,54,0.00,,,0.00,,2013-04-30 12:42:00,
2013-04-30 08:51:00,52.0,35.0,29.51,North,-999,-999.0,-999.0,52,0.00,,,0.00,,2013-04-30 12:51:00,
2013-04-30 09:01:00,54.0,34.0,29.50,North,-999,-999.0,-999.0,46,0.00,,,0.00,,2013-04-30 13:01:00,
2013-04-30 09:11:00,54.0,34.0,29.50,North,-999,-999.0,-999.0,46,0.00,,,0.00,,2013-04-30 13:11:00,
2013-04-30 09:21:00,56.0,34.0,29.50,North,-999,-999.0,-999.0,44,0.00,,,0.00,,2013-04-30 13:21:00,
2013-04-30 09:31:00,58.0,34.0,29.50,North,-999,-999.0,-999.0,41,0.00,,,0.00,,2013-04-30 13:31:00,
2013-04-30 09:41:00,58.0,34.0,29.50,North,-999,-999.0,-999.0,41,0.00,,,0.00,,2013-04-30 13:41:00,
2013-04-30 09:52:00,59.0,35.0,29.50,North,-999,-999.0,-999.0,40,0.00,,,0.00,,2013-04-30 13:52:00,
2013-04-30 10:02:00,61.0,36.0,29.50,North,-999,-999.0,-999.0,39,0.00,,,0.00,,2013-04-30 14:02:00,
2013-04-30 10:11:00,61.0,36.0,29.50,North,-999,-999.0,-999.0,39,0.00,,,0.00,,2013-04-30 14:11:00,
2013-04-30 10:21:00,63.0,38.0,29.50,North,-999,-999.0,-999.0,40,0.00,,,0.00,,2013-04-30 14:21:00,
2013-04-30 10:31:00,65.0,39.0,29.50,North,-999,-999.0,-999.0,38,0.00,,,0.00,,2013-04-30 14:31:00,
2013-04-30 10:41:00,65.0,39.0,29.50,North,-999,-999.0,-999.0,38,0.00,,,0.00,,2013-04-30 14:41:00,
2013-04-30 10:52:00,66.0,40.0,29.50,North,-999,-999.0,-999.0,38,0.00,,,0.00,,2013-04-30 14:52:00,
2013-04-30 11:01:00,67.0,38.0,29.50,North,-999,-999.0,-999.0,35,0.00,,,0.00,,2013-04-30 15:01:00,
2013-04-30 11:11:00,67.0,38.0,29.50,North,-999,-999.0,-999.0,35,0.00,,,0.00,,2013-04-30 15:11:00,
2013-04-30 11:21:00,69.0,40.0,29.50,North,-999,-999.0,-999.0,35,0.00,,,0.00,,2013-04-30 15:21:00,
2013-04-30 11:32:00,70.0,40.0,29.50,North,-999,-999.0,-999.0,34,0.00,,,0.00,,2013-04-30 15:32:00,
2013-04-30 11:42:00,70.0,40.0,29.50,North,-999,-999.0,-999.0,34,0.00,,,0.00,,2013-04-30 15:42:00,
2013-04-30 11:53:00,71.0,40.0,29.49,North,-999,-999.0,-999.0,33,0.00,,,0.00,,2013-04-30 15:53:00,
2013-04-30 12:02:00,72.0,41.0,29.49,North,-999,-999.0,-999.0,33,0.00,,,0.00,,2013-04-30 16:02:00,
2013-04-30 12:12:00,72.0,41.0,29.49,North,-999,-999.0,-999.0,33,0.00,,,0.00,,2013-04-30 16:12:00,
2013-04-30 12:23:00,73.0,41.0,29.49,North,-999,-999.0,-999.0,32,0.00,,,0.00,,2013-04-30 16:23:00,
2013-04-30 12:33:00,73.0,41.0,29.49,North,-999,-999.0,-999.0,32,0.00,,,0.00,,2013-04-30 16:33:00,
2013-04-30 12:42:00,73.0,41.0,29.49,North,-999,-999.0,-999.0,32,0.00,,,0.00,,2013-04-30 16:42:00,
2013-04-30 12:52:00,74.0,41.0,29.49,North,-999,-999.0,-999.0,31,0.00,,,0.00,,2013-04-30 16:52:00,
2013-04-30 13:02:00,75.0,41.0,29.48,North,-999,-999.0,-999.0,30,0.00,,,0.00,,2013-04-30 17:02:00,
2013-04-30 13:12:00,75.0,41.0,29.48,North,-999,-999.0,-999.0,30,0.00,,,0.00,,2013-04-30 17:12:00,
2013-04-30 13:22:00,76.0,42.0,29.48,North,-999,-999.0,-999.0,30,0.00,,,0.00,,2013-04-30 17:22:00,
2013-04-30 13:32:00,77.0,42.0,29.47,North,-999,-999.0,-999.0,29,0.00,,,0.00,,2013-04-30 17:32:00,
2013-04-30 13:42:00,77.0,42.0,29.47,North,-999,-999.0,-999.0,29,0.00,,,0.00,,2013-04-30 17:42:00,
2013-04-30 13:53:00,77.0,41.0,29.47,North,-999,-999.0,-999.0,28,0.00,,,0.00,,2013-04-30 17:53:00,
2013-04-30 14:01:00,77.0,41.0,29.47,North,-999,-999.0,-999.0,28,0.00,,,0.00,,2013-04-30 18:01:00,
2013-04-30 14:11:00,77.0,41.0,29.47,North,-999,-999.0,-999.0,28,0.00,,,0.00,,2013-04-30 18:11:00,
2013-04-30 14:22:00,77.0,41.0,29.48,North,-999,-999.0,-999.0,28,0.00,,,0.00,,2013-04-30 18:22:00,
2013-04-30 14:32:00,77.0,41.0,29.48,North,-999,-999.0,-999.0,28,0.00,,,0.00,,2013-04-30 18:32:00,
2013-04-30 14:42:00,77.0,41.0,29.48,North,-999,-999.0,-999.0,28,0.00,,,0.00,,2013-04-30 18:42:00,
2013-04-30 14:52:00,78.0,42.0,29.48,North,-999,-999.0,-999.0,28,0.00,,,0.00,,2013-04-30 18:52:00,
2013-04-30 15:01:00,78.0,41.0,29.48,North,-999,-999.0,-999.0,27,0.00,,,0.00,,2013-04-30 19:01:00,
2013-04-30 15:11:00,78.0,41.0,29.48,North,-999,-999.0,-999.0,27,0.00,,,0.00,,2013-04-30 19:11:00,
2013-04-30 15:22:00,78.0,41.0,29.47,North,-999,-999.0,-999.0,27,0.00,,,0.00,,2013-04-30 19:22:00,
2013-04-30 15:32:00,78.0,41.0,29.47,North,-999,-999.0,-999.0,27,0.00,,,0.00,,2013-04-30 19:32:00,
2013-04-30 15:42:00,78.0,41.0,29.47,North,-999,-999.0,-999.0,27,0.00,,,0.00,,2013-04-30 19:42:00,
2013-04-30 15:52:00,78.0,41.0,29.47,North,-999,-999.0,-999.0,27,0.00,,,0.00,,2013-04-30 19:52:00,
2013-04-30 16:02:00,77.0,40.0,29.47,North,-999,-999.0,-999.0,27,0.00,,,0.00,,2013-04-30 20:02:00,
2013-04-30 16:11:00,77.0,40.0,29.47,North,-999,-999.0,-999.0,27,0.00,,,0.00,,2013-04-30 20:11:00,
2013-04-30 16:22:00,77.0,39.0,29.47,North,-999,-999.0,-999.0,26,0.00,,,0.00,,2013-04-30 20:22:00,
2013-04-30 16:32:00,77.0,39.0,29.47,North,-999,-999.0,-999.0,26,0.00,,,0.00,,2013-04-30 20:32:00,
2013-04-30 16:42:00,77.0,39.0,29.47,North,-999,-999.0,-999.0,26,0.00,,,0.00,,2013-04-30 20:42:00,
2013-04-30 16:52:00,76.0,40.0,29.47,North,-999,-999.0,-999.0,27,0.00,,,0.00,,2013-04-30 20:52:00,
2013-04-30 17:02:00,74.0,37.0,29.47,North,-999,-999.0,-999.0,26,0.00,,,0.00,,2013-04-30 21:02:00,
2013-04-30 17:11:00,74.0,37.0,29.47,North,-999,-999.0,-999.0,26,0.00,,,0.00,,2013-04-30 21:11:00,
2013-04-30 17:22:00,74.0,38.0,29.48,North,-999,-999.0,-999.0,27,0.00,,,0.00,,2013-04-30 21:22:00,
2013-04-30 17:32:00,74.0,39.0,29.48,North,-999,-999.0,-999.0,28,0.00,,,0.00,,2013-04-30 21:32:00,
2013-04-30 17:42:00,74.0,39.0,29.48,North,-999,-999.0,-999.0,28,0.00,,,0.00,,2013-04-30 21:42:00,
2013-04-30 17:53:00,73.0,38.0,29.48,North,-999,-999.0,-999.0,28,0.00,,,0.00,,2013-04-30 21:53:00,
2013-04-30 18:02:00,77.0,38.0,29.49,North,-999,-999.0,-999.0,25,0.00,,,0.00,,2013-04-30 22:02:00,
2013-04-30 18:12:00,77.0,38.0,29.49,North,-999,-999.0,-999.0,25,0.00,,,0.00,,2013-04-30 22:12:00,
2013-04-30 18:23:00,83.0,41.0,29.49,North,-999,-999.0,-999.0,23,0.00,,,0.00,,2013-04-30 22:23:00,
2013-04-30 18:33:00,83.0,40.0,29.49,North,-999,-999.0,-999.0,22,0.00,,,0.00,,2013-04-30 22:33:00,
2013-04-30 18:42:00,83.0,40.0,29.49,North,-999,-999.0,-999.0,22,0.00,,,0.00,,2013-04-30 22:42:00,
2013-04-30 18:53:00,81.0,40.0,29.50,North,-999,-999.0,-999.0,23,0.00,,,0.00,,2013-04-30 22:53:00,
2013-04-30 19:02:00,73.0,36.0,29.50,North,-999,-999.0,-999.0,26,0.00,,,0.00,,2013-04-30 23:02:00,
2013-04-30 19:12:00,73.0,36.0,29.50,North,-999,-999.0,-999.0,26,0.00,,,0.00,,2013-04-30 23:12:00,
2013-04-30 19:22:00,68.0,34.0,29.50,North,-999,-999.0,-999.0,28,0.00,,,0.00,,2013-04-30 23:22:00,
2013-04-30 19:32:00,65.0,32.0,29.50,North,-999,-999.0,-999.0,29,0.00,,,0.00,,2013-04-30 23:32:00,
2013-04-30 19:42:00,65.0,32.0,29.50,North,-999,-999.0,-999.0,29,0.00,,,0.00,,2013-04-30 23:42:00,
2013-04-30 19:52:00,62.0,30.0,29.51,North,-999,-999.0,-999.0,30,0.00,,,0.00,,2013-04-30 23:52:00,
2013-04-30 20:02:00,60.0,31.0,29.51,North,-999,-999.0,-999.0,33,0.00,,,0.00,,2013-05-01 00:02:00,
2013-04-30 20:11:00,60.0,31.0,29.51,North,-999,-999.0,-999.0,33,0.00,,,0.00,,2013-05-01 00:11:00,
2013-04-30 20:22:00,59.0,30.0,29.51,North,-999,-999.0,-999.0,33,0.00,,,0.00,,2013-05-01 00:22:00,
2013-04-30 20:32:00,57.0,30.0,29.51,North,-999,-999.0,-999.0,35,0.00,,,0.00,,2013-05-01 00:32:00,
2013-04-30 20:42:00,57.0,30.0,29.51,North,-999,-999.0,-999.0,35,0.00,,,0.00,,2013-05-01 00:42:00,
2013-04-30 20:51:00,55.0,28.0,29.52,North,-999,-999.0,-999.0,35,0.00,,,0.00,,2013-05-01 00:51:00,
2013-04-30 21:01:00,54.0,28.0,29.53,North,-999,-999.0,-999.0,36,0.00,,,0.00,,2013-05-01 01:01:00,
2013-04-30 21:11:00,54.0,28.0,29.53,North,-999,-999.0,-999.0,36,0.00,,,0.00,,2013-05-01 01:11:00,
2013-04-30 21:21:00,53.0,27.0,29.53,North,-999,-999.0,-999.0,37,0.00,,,0.00,,2013-05-01 01:21:00,
2013-04-30 21:32:00,53.0,27.0,29.53,North,-999,-999.0,-999.0,36,0.00,,,0.00,,2013-05-01 01:32:00,
2013-04-30 21:42:00,53.0,27.0,29.53,North,-999,-999.0,-999.0,36,0.00,,,0.00,,2013-05-01 01:42:00,
2013-04-30 21:52:00,52.0,26.0,29.53,North,-999,-999.0,-999.0,36,0.00,,,0.00,,2013-05-01 01:52:00,
2013-04-30 22:02:00,52.0,26.0,29.53,North,-999,-999.0,-999.0,36,0.00,,,0.00,,2013-05-01 02:02:00,
2013-04-30 22:11:00,52.0,26.0,29.53,North,-999,-999.0,-999.0,36,0.00,,,0.00,,2013-05-01 02:11:00,
2013-04-30 22:21:00,51.0,26.0,29.54,North,-999,-999.0,-999.0,37,0.00,,,0.00,,2013-05-01 02:21:00,
2013-04-30 22:32:00,49.0,25.0,29.55,North,-999,-999.0,-999.0,39,0.00,,,0.00,,2013-05-01 02:32:00,
2013-04-30 22:42:00,49.0,25.0,29.55,North,-999,-999.0,-999.0,39,0.00,,,0.00,,2013-05-01 02:42:00,
2013-04-30 22:52:00,48.0,24.0,29.55,North,-999,-999.0,-999.0,39,0.00,,,0.00,,2013-05-01 02:52:00,
2013-04-30 23:02:00,48.0,25.0,29.56,North,-999,-999.0,-999.0,40,0.00,,,0.00,,2013-05-01 03:02:00,
2013-04-30 23:11:00,48.0,25.0,29.56,North,-999,-999.0,-999.0,40,0.00,,,0.00,,2013-05-01 03:11:00,
2013-04-30 23:21:00,47.0,24.0,29.56,North,-999,-999.0,-999.0,40,0.00,,,0.00,,2013-05-01 03:21:00,
2013-04-30 23:33:00,46.0,24.0,29.57,North,-999,-999.0,-999.0,41,0.00,,,0.00,,2013-05-01 03:33:00,
2013-04-30 23:53:00,46.0,25.0,29.57,North,-999,-999.0,-999.0,43,0.00,,,0.00,,2013-05-01 03:53:00,